Weather History for KUGN - February, 2014

Change the Weather History Date:

Thursday, February 27, 2014

  Actual Average Record
Temperature  
Mean Temperature 3 °F -  
Max Temperature 15 °F 38 °F 51 °F (2000)
Min Temperature -9 °F 22 °F -9 °F (2014)
Degree Days  
Heating Degree Days 62 35  
Month to date heating degree days 1341 1061  
Since 1 July heating degree days 5813 4912  
Cooling Degree Days 0 0  
Month to date cooling degree days 0 0  
Year to date cooling degree days 0 0  
Moisture  
Dew Point -9 °F    
Average Humidity 55    
Maximum Humidity 74    
Minimum Humidity 35    
Precipitation  
Precipitation T in 0.06 in 0.46 in (2013)
Month to date precipitation 0.95 1.60  
Year to date precipitation 2.02 2.99  
Sea Level Pressure  
Sea Level Pressure 30.00 in    
Wind  
Wind Speed 7 mph (WNW)    
Max Wind Speed 23 mph    
Max Gust Speed 37 mph    
Visibility 9 miles    
Events Snow    
T = Trace of Precipitation, MM = Missing Value Source: NWS Daily Summary

Daily Weather History Graph

Daily Weather History Graph

Search for Another Location

Airport or City:

Trip Planner

Search our weather history database for the weather conditions in past years. The results will help you decide how hot, cold, wet, or windy it might be!

Date:

Astronomy

Feb. 27, 2014 Rise Set
Actual Time 6:30 AM CST 5:38 PM CST
Civil Twilight 6:01 AM CST 6:07 PM CST
Nautical Twilight 5:29 AM CST 6:39 PM CST
Astronomical Twilight 4:56 AM CST 7:12 PM CST
Moon 5:03 AM CST (2/27) 4:03 PM CST (2/27)
Length of Visible Light 12h 05m
Length of Day
11h 08m
Waning Crescent, 4% of the Moon is Illuminated
Feb 27
Waning Crescent
Mar 1
New
Mar 8
First Quarter
Mar 16
Full
Mar 23
Last Quarter

Hourly Weather History & Observations

Time (CST) Temp. Windchill Dew Point Humidity Pressure Visibility Wind Dir Wind Speed Gust Speed Precip Events Conditions
12:52 AM 14.0 °F -0.2 °F 6.1 °F 71% 29.68 in 10.0 mi West 12.7 mph 18.4 mph N/A   Scattered Clouds
1:01 AM 14.0 °F -0.2 °F 6.8 °F 73% 29.61 in 10.0 mi West 12.7 mph 20.7 mph N/A   Mostly Cloudy
1:08 AM 14.0 °F -2.0 °F 6.8 °F 73% 29.63 in 1.8 mi WNW 16.1 mph 25.3 mph 0.00 in Snow Light Snow
1:21 AM 12.2 °F -3.1 °F 6.8 °F 79% 29.64 in 3.0 mi WNW 13.8 mph 24.2 mph 0.00 in Snow Light Snow
1:45 AM 12.2 °F -1.8 °F 1.4 °F 62% 29.66 in 10.0 mi NW 11.5 mph 24.2 mph 0.00 in   Mostly Cloudy
1:52 AM 12.0 °F -5.6 °F -0.0 °F 59% 29.74 in 10.0 mi NW 18.4 mph 32.2 mph 0.00 in   Mostly Cloudy
2:13 AM 10.4 °F -6.6 °F 3.2 °F 73% 29.68 in 1.8 mi NW 16.1 mph 28.8 mph 0.00 in Snow Light Snow
2:23 AM 8.6 °F -9.5 °F -0.4 °F 67% 29.69 in 3.0 mi WNW 17.3 mph 29.9 mph 0.00 in Snow Light Snow
2:30 AM 8.6 °F -10.0 °F -5.8 °F 52% 29.69 in 9.0 mi NW 18.4 mph 36.8 mph 0.00 in   Scattered Clouds
2:52 AM 8.1 °F -8.4 °F -7.1 °F 50% 29.79 in 10.0 mi WNW 13.8 mph 24.2 mph 0.00 in   Clear
3:52 AM 6.1 °F -12.2 °F -9.9 °F 48% 29.84 in 10.0 mi WNW 16.1 mph 29.9 mph N/A   Clear
4:52 AM 3.9 °F -13.7 °F -4.0 °F 70% 29.89 in 8.0 mi NW 13.8 mph 24.2 mph N/A   Scattered Clouds
5:52 AM 1.9 °F -12.9 °F -13.0 °F 50% 29.95 in 10.0 mi NW 9.2 mph 24.2 mph N/A   Clear
6:52 AM 1.0 °F -11.7 °F -14.1 °F 49% 30.01 in 10.0 mi NW 6.9 mph 20.7 mph N/A   Clear
7:52 AM 1.9 °F -13.8 °F -15.0 °F 45% 30.06 in 10.0 mi WNW 10.4 mph 17.3 mph N/A   Clear
8:52 AM 1.9 °F -13.8 °F -15.0 °F 45% 30.11 in 10.0 mi WNW 10.4 mph 21.9 mph N/A   Clear
9:52 AM 3.0 °F -14.1 °F -14.1 °F 45% 30.14 in 10.0 mi WNW 12.7 mph 17.3 mph N/A   Clear
10:52 AM 3.9 °F -9.4 °F -13.0 °F 46% 30.17 in 10.0 mi WNW 8.1 mph 18.4 mph N/A   Clear
11:52 AM 5.0 °F -6.9 °F -13.0 °F 43% 30.18 in 10.0 mi WNW 6.9 mph 18.4 mph N/A   Clear
12:52 PM 6.1 °F -6.8 °F -17.0 °F 34% 30.17 in 10.0 mi NNW 8.1 mph 17.3 mph N/A   Clear
1:52 PM 7.0 °F -5.7 °F -13.0 °F 40% 30.18 in 10.0 mi West 8.1 mph - N/A   Clear
2:52 PM 8.1 °F -2.0 °F -14.1 °F 36% 30.20 in 10.0 mi WNW 5.8 mph - N/A   Clear
3:52 PM 7.0 °F -1.7 °F -16.1 °F 34% 30.21 in 10.0 mi West 4.6 mph - N/A   Clear
4:52 PM 7.0 °F -3.3 °F -14.1 °F 38% 30.22 in 10.0 mi NW 5.8 mph - N/A   Clear
5:52 PM 3.9 °F - -15.0 °F 41% 30.24 in 10.0 mi Calm Calm - N/A   Clear
6:52 PM -0.0 °F - -16.1 °F 47% 30.25 in 10.0 mi Calm Calm - N/A   Clear
7:52 PM -2.0 °F - -14.1 °F 57% 30.26 in 10.0 mi Calm Calm - N/A   Clear
8:52 PM -5.1 °F - -14.1 °F 65% 30.27 in 10.0 mi Calm Calm - N/A   Clear
9:52 PM -6.0 °F - -14.1 °F 68% 30.28 in 10.0 mi Calm Calm - N/A   Clear
10:52 PM -7.1 °F - -13.0 °F 75% 30.28 in 10.0 mi Calm Calm - N/A   Clear
11:52 PM -8.0 °F - -13.0 °F 79% 30.28 in 10.0 mi Calm Calm - N/A   Clear